Flag for Germany Weather past 2 weeks in Siegburg, North Rhine-Westphalia, Germany

Now
42 °F

Overcast.


Feels Like: 37 °F
Forecast: 33 / 54 °F
Wind: 8 mph from West

Location: Bonn-Hangelar

Current Time: Mar 27, 2015 at 1:23:43 AM

Latest Report: Mar 27, 2015 at 1:00 AM


Visibility: 7 mi

Pressure: 29.85 "Hg

Humidity: 88%

Dew point: 39 °F

Location of SiegburgLocation

Historic Weather in Siegburg — Graph

°F

Siegburg temperature yesterday

Maximum temperature yesterday: 45 °F (at 1:00 PM)
Minimum temperature yesterday: 37 °F (at 6:00 AM)
Average temperature yesterday: 40 °F

Past Weeks' High & Low Weather Summary

 TemperatureHumidityPressure
High60 °F (Mar 17, 1:00 PM)100% (Mar 16, 7:00 AM)30.47 "Hg (Mar 16, 7:00 AM)
Low32 °F (Mar 16, 4:00 AM)46% (Mar 17, 1:00 PM)29.68 "Hg (Mar 25, 4:00 AM)
Average41 °F83%30.16 "Hg
* Reported Midnight between Mar 11 and Mar 12 — Midnight between Mar 26 and Mar 27, Siegburg, Weather by CustomWeather, © 2015

Note: Actual official high and low records may vary slightly from our data, if they occured in-between our weather recording intervals... More about our weather records

Advertising

Siegburg weather history for previous 24 hours

 ConditionsComfort  
Time TempWeatherWind HumidityBarometerVisibility
12:00 AM
Fri, Mar 27
43 °FFog.7 mph93%29.83 "Hg4 mi
11:00 PM
Thu, Mar 26
42 °FFog.7 mph96%29.81 "Hg4 mi
10:00 PM42 °FLow clouds.7 mph96%29.80 "Hg6 mi
9:00 PM40 °FLight freezing rain. Low clouds.9 mph95%29.78 "Hg4 mi
8:00 PM40 °FLight freezing rain. Low clouds.12 mph94%29.75 "Hg4 mi
7:00 PM39 °FLight rain. Low clouds.10 mph91%29.74 "Hg12 mi
6:00 PM40 °FLight rain. Low clouds.9 mph88%29.73 "Hg5 mi
5:00 PM40 °FLight rain. Overcast.8 mph85%29.73 "Hg12 mi
4:00 PM39 °FLight rain. Overcast.9 mph90%29.75 "Hg7 mi
3:00 PM42 °FLight rain. Overcast.12 mph65%29.74 "Hg25 mi
2:00 PM44 °FOvercast.8 mph60%29.75 "Hg31 mi
1:00 PM45 °FOvercast.8 mph63%29.76 "Hg31 mi
12:00 PM44 °FOvercast.5 mph67%29.78 "Hg19 mi
11:00 AMN/AOvercast.7 mphN/AN/A19 mi
10:00 AM40 °FOvercast.6 mph79%29.82 "Hg16 mi
9:00 AM39 °FPartly sunny.6 mph88%29.83 "Hg12 mi
8:00 AM37 °FLow clouds.5 mph97%29.84 "Hg7 mi
7:00 AM37 °FFog.5 mph99%29.84 "Hg2 mi
6:00 AM37 °FFog.6 mph99%29.83 "Hg4 mi
5:00 AM37 °FFog.7 mph99%29.83 "Hg1 mi
4:00 AM37 °FFog.5 mph98%29.82 "Hg3 mi
3:00 AM38 °FFog.6 mph97%29.82 "Hg2 mi
2:00 AM38 °FFog.5 mph97%29.82 "Hg2 mi
1:00 AM39 °FFog.5 mph97%29.82 "Hg2 mi
Weather by CustomWeather, © 2015

See weather overviewHow to use our weather pages